CARTOSAT-2F

Last updated on Sun Nov 02 2025 00:02:32 GMT+0000 (Coordinated Universal Time)

1 43111U 18004A 25305.64935752 .00006569 00000+0 31458-3 0 9998 2 43111 97.4381 3.9371 0001056 348.6563 11.4647 15.19279813432787
UTC large
Height (km)
Speed (km/s)
/
Latitude / Longitude
Inclination (degrees)
Orbital Period (minutes)
Azimuth
Elevation
Range (km)
Doppler Factor

Next 0 passes for location: London (51.5072 / 0.1276)

Sorry there are no passes over London.